STARLINK-3899, 52457

Orbit data source: Space-Track

STARLINK-3899, 52457 is a payload satellite owned by SpaceX/Seattle (US) in LEO that was launched on Fri, 06 May 2022 UTC via an FALCON 9 launch vehicle from the Air Force Eastern Test Range (AFETR). Payload-class satellites include a variety of spacecraft equipped with specific instruments for various scientific and technological missions. These include communications satellites like Starlink; space stations such as the ISS; scientific satellites like the Hubble; Earth observation satellites from companies like Planet Labs, Umbra, and HawkEye 360; GPS; miniature CubeSats for education and research; and military/defense satellites.

Loading next visibility...
Identifier
52457, 2022-049G
Orbit
LEO
Country
Flag of USUS
Related business
Manufacturer
SpaceX/Seattle
Mission
Operational Commercial Communications
Bus & Motor
STARLINK, Unknown motor
Mass
297 kg wet, ~220 kg dry
Launch date (UTC)
2022-05-06 (4 years ago)
Launch vehicle
FALCON 9
Launch site
Air Force Eastern Test Range (AFETR)
Object type
Payload
Rocket body
Debris
Shape & HBR
Box + 1 Pan, 10.1 m
Radar Cross Section
13.562 m², Large (>1 m²)

Expand to show TLE details & history
Last TLE update: 2 days ago

TLE from 2 days ago
0 STARLINK-3899
1 52457U 22049G   26171.16691412  .00000450  00000-0  46370-4 0  9990
2 52457  53.1606 328.9570 0001172  83.8235 276.2890 15.08836183227581
Epoch: 2026-06-20T04:00Z
TLE epoch observation values (Epoch: 2026-06-20T04:00:21.379Z)
Latitude
-0.00004°
Longitude
0.48246°
Altitude
540.558 km
Speed
7.593 km/s
True Right ascension
21h 55m 49s
True Declination
0° 00' 00"
Sunlit
Object was in full shadow at epoch
Visualization orbit readout
Latitude
Unknown
Longitude
Unknown
Altitude
Unknown
Speed
Unknown
Apparent Right ascension
Unknown
Apparent Declination
Unknown
Sunlit
N/A
Visualization observer readout
Local Sidereal Time
21:52:16
Azimuth
Unknown
Elevation
Unknown
Doppler factor
Unknown
Orbital elements
Apogee altitude
540.82 km
Perigee altitude
539.198 km
Semi-major axis
6,918.146 km
Eccentricity
0.00012
Inclination
53.1606°
RAAN
328.957°
Arg. of periapsis
83.8235°
True anomaly
276.27565°
Mean anomaly
276.289°
Eccentric anomaly
276.28233°
Mean motion
3.77189 °/min
Orbital period
95.44 mins
BSTAR
0.00004637
Loading maneuver chart data...
Computing Atmospheric mass density...

Documentation

Showing up to 5 results
|